When you browse on this site, cookies collect data to enhance your experience and personalize the content and advertising you see.
Visit our Privacy Policy to learn more. By continuing to use the site, you agree to this use of cookies and data.
  • în România
  • Lista ţărilor
  • Pe 7 zile
  • Temperatura apei
  • Meteo pe hartă
  • Widget-uri
  • user-avatar
    Intrare

    Meteo pe oră la Gaborone

    Astăzi, 22 Septembrie, Duminică

    Timp Temperatura Precipitaţii Vânt Presiune Umiditate
    00:00 +22°C° 0 mm 1 m/s 676 mmHg 22%
    01:00 +21°C° 0 mm 1 m/s 676 mmHg 24%
    02:00 +20°C° 0 mm 1 m/s 675 mmHg 25%
    03:00 +20°C° 0 mm 1 m/s 675 mmHg 26%
    04:00 +18°C° 0 mm 2 m/s 675 mmHg 27%
    05:00 +18°C° 0 mm 2 m/s 675 mmHg 29%
    06:00 +19°C° 0 mm 2 m/s 676 mmHg 28%
    07:00 +21°C° 0 mm 3 m/s 677 mmHg 27%
    08:00 +23°C° 0 mm 4 m/s 677 mmHg 26%
    09:00 +26°C° 0 mm 3 m/s 677 mmHg 22%
    10:00 +29°C° 0 mm 3 m/s 678 mmHg 18%
    11:00 +33°C° 0 mm 3 m/s 678 mmHg 15%
    12:00 +35°C° 0 mm 3 m/s 678 mmHg 12%
    13:00 +36°C° 0 mm 3 m/s 677 mmHg 10%
    14:00 +38°C° 0 mm 3 m/s 677 mmHg 7%
    15:00 +37°C° 0 mm 3 m/s 676 mmHg 7%
    16:00 +37°C° 0 mm 4 m/s 676 mmHg 6%
    17:00 +36°C° 0 mm 4 m/s 676 mmHg 6%
    18:00 +34°C° 0 mm 3 m/s 676 mmHg 7%
    19:00 +30°C° 0 mm 3 m/s 676 mmHg 8%
    20:00 +27°C° 0 mm 3 m/s 676 mmHg 10%
    21:00 +26°C° 0 mm 4 m/s 676 mmHg 14%
    22:00 +23°C° 0 mm 5 m/s 676 mmHg 18%
    23:00 +22°C° 0 mm 6 m/s 677 mmHg 22%

    Mâine, 23 Septembrie, Luni

    Timp Temperatura Precipitaţii Vânt Presiune Umiditate
    00:00 +21°C° 0 mm 5 m/s 676 mmHg 24%
    01:00 +19°C° 0 mm 4 m/s 676 mmHg 26%
    02:00 +18°C° 0 mm 2 m/s 676 mmHg 28%
    03:00 +17°C° 0 mm 3 m/s 676 mmHg 27%
    04:00 +16°C° 0 mm 3 m/s 676 mmHg 27%
    05:00 +16°C° 0 mm 3 m/s 677 mmHg 27%
    06:00 +17°C° 0 mm 3 m/s 677 mmHg 25%
    07:00 +18°C° 0 mm 2 m/s 678 mmHg 23%
    08:00 +20°C° 0 mm 2 m/s 679 mmHg 22%
    09:00 +23°C° 0 mm 2 m/s 679 mmHg 18%
    10:00 +26°C° 0 mm 2 m/s 679 mmHg 14%
    11:00 +29°C° 0 mm 3 m/s 680 mmHg 10%
    12:00 +30°C° 0 mm 3 m/s 679 mmHg 9%
    13:00 +33°C° 0 mm 3 m/s 679 mmHg 8%
    14:00 +34°C° 0 mm 3 m/s 679 mmHg 7%
    15:00 +35°C° 0 mm 3 m/s 679 mmHg 7%
    16:00 +35°C° 0 mm 4 m/s 678 mmHg 6%
    17:00 +35°C° 0 mm 4 m/s 678 mmHg 6%
    18:00 +32°C° 0 mm 4 m/s 678 mmHg 9%
    19:00 +28°C° 0 mm 3 m/s 678 mmHg 11%
    20:00 +24°C° 0 mm 3 m/s 678 mmHg 14%
    21:00 +22°C° 0 mm 4 m/s 679 mmHg 27%
    22:00 +21°C° 0 mm 4 m/s 679 mmHg 40%
    23:00 +21°C° 0 mm 5 m/s 680 mmHg 52%

    Poimâine, 24 Septembrie, Marţi

    Timp Temperatura Precipitaţii Vânt Presiune Umiditate
    00:00 +19°C° 0 mm 5 m/s 680 mmHg 58%
    01:00 +17°C° 0 mm 5 m/s 680 mmHg 64%
    02:00 +16°C° 0 mm 5 m/s 680 mmHg 69%
    03:00 +16°C° 0 mm 5 m/s 680 mmHg 72%
    04:00 +15°C° 0 mm 5 m/s 680 mmHg 75%
    05:00 +15°C° 0 mm 5 m/s 680 mmHg 77%
    06:00 +15°C° 0 mm 5 m/s 681 mmHg 75%
    07:00 +16°C° 0 mm 5 m/s 681 mmHg 73%
    08:00 +16°C° 0 mm 5 m/s 681 mmHg 71%
    09:00 +17°C° 0 mm 5 m/s 681 mmHg 66%
    10:00 +19°C° 0 mm 4 m/s 681 mmHg 60%
    11:00 +21°C° 0 mm 4 m/s 681 mmHg 55%
    12:00 +23°C° 0 mm 4 m/s 681 mmHg 47%
    13:00 +26°C° 0 mm 3 m/s 680 mmHg 39%
    14:00 +29°C° 0 mm 3 m/s 680 mmHg 31%
    15:00 +29°C° 0 mm 3 m/s 679 mmHg 29%
    16:00 +29°C° 0 mm 3 m/s 679 mmHg 27%
    17:00 +30°C° 0 mm 2 m/s 679 mmHg 25%
    18:00 +28°C° 0 mm 2 m/s 679 mmHg 29%
    19:00 +26°C° 0 mm 2 m/s 679 mmHg 32%
    20:00 +23°C° 0 mm 2 m/s 679 mmHg 35%
    21:00 +23°C° 0 mm 2 m/s 679 mmHg 39%
    22:00 +21°C° 0 mm 2 m/s 679 mmHg 44%
    23:00 +20°C° 0 mm 2 m/s 679 mmHg 48%

    25 Septembrie, Miercuri

    Timp Temperatura Precipitaţii Vânt Presiune Umiditate
    00:00 +19°C° 0 mm 3 m/s 679 mmHg 55%
    01:00 +18°C° 0 mm 4 m/s 679 mmHg 61%
    02:00 +17°C° 0 mm 4 m/s 679 mmHg 68%
    03:00 +15°C° 0 mm 4 m/s 680 mmHg 71%
    04:00 +15°C° 0 mm 4 m/s 680 mmHg 75%
    05:00 +14°C° 0 mm 4 m/s 680 mmHg 78%
    06:00 +14°C° 0 mm 5 m/s 681 mmHg 74%
    07:00 +15°C° 0 mm 6 m/s 682 mmHg 69%
    08:00 +16°C° 0 mm 6 m/s 683 mmHg 65%
    09:00 +17°C° 0 mm 6 m/s 683 mmHg 58%
    10:00 +20°C° 0 mm 6 m/s 683 mmHg 51%
    11:00 +22°C° 0 mm 6 m/s 683 mmHg 44%
    12:00 +24°C° 0 mm 6 m/s 683 mmHg 40%
    13:00 +26°C° 0 mm 6 m/s 683 mmHg 35%
    14:00 +28°C° 0 mm 5 m/s 683 mmHg 31%
    15:00 +28°C° 0 mm 5 m/s 683 mmHg 32%
    16:00 +27°C° 0 mm 5 m/s 683 mmHg 32%
    17:00 +27°C° 0 mm 5 m/s 682 mmHg 33%
    18:00 +25°C° 0 mm 5 m/s 683 mmHg 36%
    19:00 +23°C° 0 mm 5 m/s 683 mmHg 40%
    20:00 +21°C° 0 mm 5 m/s 684 mmHg 44%
    21:00 +20°C° 0 mm 5 m/s 684 mmHg 48%
    22:00 +19°C° 0 mm 4 m/s 684 mmHg 51%
    23:00 +17°C° 0 mm 4 m/s 684 mmHg 55%

    26 Septembrie, Joi

    Timp Temperatura Precipitaţii Vânt Presiune Umiditate
    00:00 +15°C° 0 mm 4 m/s 684 mmHg 56%
    01:00 +14°C° 0 mm 4 m/s 684 mmHg 56%
    02:00 +13°C° 0 mm 4 m/s 684 mmHg 57%
    03:00 +12°C° 0 mm 3 m/s 684 mmHg 60%
    04:00 +11°C° 0 mm 3 m/s 683 mmHg 64%
    05:00 +10°C° 0 mm 2 m/s 683 mmHg 67%
    06:00 +11°C° 0 mm 3 m/s 684 mmHg 60%
    07:00 +12°C° 0 mm 3 m/s 684 mmHg 52%
    08:00 +13°C° 0 mm 4 m/s 685 mmHg 45%
    09:00 +17°C° 0 mm 4 m/s 685 mmHg 35%
    10:00 +19°C° 0 mm 5 m/s 685 mmHg 26%
    11:00 +22°C° 0 mm 5 m/s 685 mmHg 16%
    12:00 +23°C° 0 mm 5 m/s 685 mmHg 14%
    13:00 +26°C° 0 mm 4 m/s 684 mmHg 12%
    14:00 +27°C° 0 mm 4 m/s 684 mmHg 10%
    15:00 +27°C° 0 mm 4 m/s 683 mmHg 9%
    16:00 +27°C° 0 mm 3 m/s 683 mmHg 8%
    17:00 +27°C° 0 mm 3 m/s 682 mmHg 8%
    18:00 +24°C° 0 mm 3 m/s 682 mmHg 10%
    19:00 +20°C° 0 mm 2 m/s 682 mmHg 13%
    20:00 +18°C° 0 mm 2 m/s 682 mmHg 16%
    21:00 +17°C° 0 mm 2 m/s 682 mmHg 18%
    22:00 +16°C° 0 mm 2 m/s 682 mmHg 20%
    23:00 +15°C° 0 mm 2 m/s 682 mmHg 22%

    27 Septembrie, Vineri

    Timp Temperatura Precipitaţii Vânt Presiune Umiditate
    00:00 +14°C° 0 mm 2 m/s 682 mmHg 24%
    01:00 +13°C° 0 mm 2 m/s 682 mmHg 27%
    02:00 +12°C° 0 mm 2 m/s 681 mmHg 29%
    03:00 +11°C° 0 mm 1 m/s 681 mmHg 32%
    04:00 +10°C° 0 mm 1 m/s 681 mmHg 35%
    05:00 +9°C° 0 mm 1 m/s 681 mmHg 39%
    06:00 +11°C° 0 mm 1 m/s 682 mmHg 37%
    07:00 +13°C° 0 mm 1 m/s 682 mmHg 36%
    08:00 +14°C° 0 mm 2 m/s 683 mmHg 34%
    09:00 +17°C° 0 mm 2 m/s 683 mmHg 29%
    10:00 +20°C° 0 mm 2 m/s 683 mmHg 24%
    11:00 +24°C° 0 mm 2 m/s 683 mmHg 19%
    12:00 +26°C° 0 mm 2 m/s 683 mmHg 16%
    13:00 +28°C° 0 mm 2 m/s 682 mmHg 13%
    14:00 +29°C° 0 mm 2 m/s 681 mmHg 11%
    15:00 +29°C° 0 mm 2 m/s 681 mmHg 11%
    16:00 +29°C° 0 mm 2 m/s 680 mmHg 11%
    17:00 +28°C° 0 mm 2 m/s 679 mmHg 10%
    18:00 +26°C° 0 mm 2 m/s 679 mmHg 13%
    19:00 +23°C° 0 mm 2 m/s 679 mmHg 15%
    20:00 +20°C° 0 mm 2 m/s 678 mmHg 18%
    21:00 +19°C° 0 mm 2 m/s 678 mmHg 19%
    22:00 +18°C° 0 mm 2 m/s 678 mmHg 20%
    23:00 +18°C° 0 mm 1 m/s 678 mmHg 20%
    Arată mai mult